Laredo, TX

3:01 AM CDT on July 30, 2016 (GMT -0500)
Laredo International

Weather History for KLRD - November, 2013

Change the Weather History Date:

Tuesday, November 5, 2013

  Actual Average Record
Temperature  
Mean Temperature 81 °F 70 °F  
Max Temperature 89 °F 80 °F 97 °F (1924)
Min Temperature 72 °F 59 °F 35 °F (1908)
Degree Days  
Heating Degree Days 0 2  
Month to date heating degree days 1 7  
Since 1 July heating degree days 1 19  
Cooling Degree Days 16 6  
Month to date cooling degree days 37 34  
Year to date cooling degree days 4394 4163  
Growing Degree Days 27 (Base 50)    
Moisture  
Dew Point 65 °F    
Average Humidity 68    
Maximum Humidity 84    
Minimum Humidity 48    
Precipitation  
Precipitation 0.00 in 0.04 in 2.50 in (1925)
Month to date precipitation 0.00 0.25  
Year to date precipitation 20.00 18.38  
Sea Level Pressure  
Sea Level Pressure 29.91 in    
Wind  
Wind Speed 8 mph (SE)    
Max Wind Speed 18 mph    
Max Gust Speed 22 mph    
Visibility 10 miles    
Events      
T = Trace of Precipitation, MM = Missing Value Source: NWS Daily Summary

Daily Weather History Graph

Daily Weather History Graph

Search for Another Location

Airport or City:

Trip Planner

Search our weather history database for the weather conditions in past years. The results will help you decide how hot, cold, wet, or windy it might be!

Date:

Astronomy

Nov. 05, 2013 Rise Set
Actual Time 6:51 AM CST 5:51 PM CST
Civil Twilight 6:27 AM CST 6:15 PM CST
Nautical Twilight 5:59 AM CST 6:43 PM CST
Astronomical Twilight 5:31 AM CST 7:10 PM CST
Moon 9:00 AM CST (11/5) 8:01 PM CST (11/5)
Length of Visible Light 11h 48m
Length of Day
10h 59m
Waxing Crescent, 7% of the Moon is Illuminated
Nov 5
Waxing Crescent
Nov 9
First Quarter
Nov 17
Full
Nov 25
Last Quarter
Dec 2
New

Hourly Weather History & Observations

Time (CST) Temp. Heat Index Dew Point Humidity Pressure Visibility Wind Dir Wind Speed Gust Speed Precip Events Conditions
12:56 AM 73.9 °F - 63.0 °F 68% 29.96 in 10.0 mi SE 10.4 mph - N/A   Overcast
1:56 AM 73.9 °F - 61.9 °F 66% 29.94 in 10.0 mi SE 12.7 mph - N/A   Overcast
2:56 AM 73.9 °F - 61.9 °F 66% 29.93 in 10.0 mi SE 12.7 mph - N/A   Overcast
3:56 AM 73.9 °F - 63.0 °F 68% 29.93 in 10.0 mi SE 11.5 mph - N/A   Overcast
4:56 AM 70.9 °F - 63.0 °F 76% 29.93 in 10.0 mi SE 6.9 mph - N/A   Clear
5:56 AM 70.0 °F - 63.0 °F 78% 29.93 in 10.0 mi Calm Calm - N/A   Mostly Cloudy
6:08 AM 69.8 °F - 64.4 °F 83% 29.94 in 10.0 mi Calm Calm - N/A   Mostly Cloudy
6:35 AM 69.8 °F - 64.4 °F 83% 29.95 in 10.0 mi Calm Calm - N/A   Scattered Clouds
6:56 AM 68.9 °F - 63.9 °F 84% 29.94 in 10.0 mi East 4.6 mph - N/A   Scattered Clouds
7:13 AM 69.8 °F - 64.4 °F 83% 29.96 in 10.0 mi Calm Calm - N/A   Mostly Cloudy
7:23 AM 69.8 °F - 64.4 °F 83% 29.96 in 10.0 mi Calm Calm - N/A   Partly Cloudy
7:56 AM 70.0 °F - 63.9 °F 81% 29.96 in 10.0 mi Calm Calm - N/A   Mostly Cloudy
12:56 PM 84.9 °F 87.1 °F 65.8 °F 53% 29.89 in 10.0 mi SSE 9.2 mph - N/A   Mostly Cloudy
1:56 PM 86.0 °F 87.6 °F 64.9 °F 49% 29.86 in 10.0 mi SE 12.7 mph - N/A   Mostly Cloudy
2:56 PM 86.9 °F 88.6 °F 64.9 °F 48% 29.84 in 10.0 mi South 13.8 mph - N/A   Scattered Clouds
3:56 PM 86.9 °F 88.6 °F 64.9 °F 48% 29.83 in 10.0 mi SSE 15.0 mph - N/A   Scattered Clouds
4:56 PM 86.0 °F 87.6 °F 64.9 °F 49% 29.83 in 10.0 mi SE 11.5 mph - N/A   Mostly Cloudy
5:56 PM 83.8 °F 85.6 °F 64.9 °F 53% 29.85 in 10.0 mi SE 8.1 mph - N/A   Mostly Cloudy
6:56 PM 81.9 °F 83.9 °F 65.8 °F 58% 29.87 in 10.0 mi SE 9.2 mph - N/A   Partly Cloudy
7:56 PM 79.9 °F - 65.8 °F 62% 29.89 in 10.0 mi ESE 8.1 mph - N/A   Mostly Cloudy
8:56 PM 79.0 °F - 65.8 °F 64% 29.91 in 10.0 mi SE 10.4 mph - N/A   Clear
9:56 PM 77.9 °F - 66.9 °F 69% 29.94 in 10.0 mi SE 10.4 mph - N/A   Clear
10:56 PM 77.0 °F - 68.0 °F 74% 29.96 in 10.0 mi ESE 8.1 mph - N/A   Clear
11:56 PM 74.8 °F - 68.0 °F 79% 29.95 in 10.0 mi SE 8.1 mph - N/A   Clear